Location: Bjelajci
(45.0103°N, 16.1758°E)
Time: 09:58:52
(UTC+00:00)

CZ-2D R/B - Pass Details

Date: 14 July 2020
Orbit: 552 x 639 km, 97.9° (Epoch: 07 August)

Event Time Altitude Azimuth Distance (km) Brightness Sun altitude
Rises 02:37:49 0° 6° (N) 2,933 7.8 -7.1°
Reaches altitude 10° 02:40:07 10° 0° (N) 2,011 6.8 -6.8°
Maximum altitude 02:44:15 43° 290° (WNW) 879 4.1 -6.3°
Drops below altitude 10° 02:48:16 10° 219° (SW) 1,952 5.5 -5.7°
Enters shadow 02:49:07 - 216° (SW) 2,289 5.8 -5.6°
